www.pogodaiklimat.ru
Время
и дата
07:53 19.07
08:53 19.07
09:53 19.07
10:53 19.07
11:53 19.07
12:53 19.07
13:53 19.07
14:53 19.07
15:53 19.07
16:53 19.07
17:53 19.07
18:53 19.07
19:53 19.07
20:53 19.07
21:53 19.07
22:53 19.07
23:53 19.07
00:53 20.07
01:53 20.07
02:53 20.07
03:53 20.07
04:53 20.07
05:53 20.07
06:53 20.07
07:53 20.07
08:53 20.07
09:53 20.07
10:53 20.07
11:53 20.07
12:53 20.07
13:53 20.07
14:53 20.07
15:53 20.07
16:53 20.07
17:53 20.07
18:53 20.07
19:53 20.07
20:53 20.07
21:53 20.07
22:53 20.07
23:53 20.07
00:53 21.07
01:53 21.07
02:53 21.07
03:53 21.07
04:53 21.07
05:53 21.07
06:53 21.07
Ветер
(напр.,м/с)
Видим. Явления Облачность Т
(С)
Тd
(С)
f
(%)
Тe
(С)
Тes
(С)
Комфортность P
(гПа)
Po
(гПа)
Тmin
(С)
Tmax
(С)
R
(мм)
R24
(мм)
S
(см)
СЗ 5 16 км ясно +27.2 +10.6 35 +28 +30 жарко 1014.1 1011.5
С 5 16 км ясно +29.4 +12.8 36 +31 +35 жарко 1014.0 1011.5
С 3 16 км ясно +31.1 +13.9 35 +33 +42 душно 1013.8 1011.1 +20.0 +31.7
С 6 16 км ясно +34.4 +11.1 24 +34 +40 очень
жарко
1013.8 1011.1
СЗ 4 16 км ясно +35.6 +11.7 24 +35 +48 очень
жарко
1013.4 1010.8
СЗ 7
{11}
16 км ясно +37.2 +11.1 21 +36 +42 очень
жарко
1012.7 1010.1
СЗ 6 16 км ясно +38.9 +11.1 19 +38 +46 очень
жарко
1012.1 1009.4
СЗ 6 16 км ясно +38.9 +11.7 20 +38 +45 очень
жарко
1011.2 1008.8
СЗ 5 16 км ясно +39.4 +11.1 18 +38 +45 очень
жарко
1010.6 1008.1 +31.7 +39.4
СЗ 5 16 км ясно +39.4 +11.1 18 +38 +42 очень
жарко
1010.1 1007.4
СЗ 4 16 км ясно +38.3 +10.0 18 +37 +39 очень
жарко
1010.1 1007.4
СЗ 4 16 км ясно +36.7 +8.9 18 +35 +36 очень
жарко
1010.2 1007.7
СЗ 6 16 км ясно +34.4 +10.6 23 +34 +34 очень
жарко
1010.4 1007.7
СЗ 5 16 км ясно +33.3 +7.8 21 +32 +32 жарко 1010.6 1008.1
СЗ 3 16 км ясно +31.1 +7.8 23 +30 +30 жарко 1010.5 1008.1 +31.1 +39.4
СВ 3 16 км ясно +30.6 +8.3 25 +30 +30 жарко 1010.5 1007.7
С 2 16 км ясно +28.9 +9.4 30 +29 +29 жарко 1010.7 1008.1
С 2 16 км ясно +28.3 +8.9 30 +28 +28 жарко 1010.3 1007.7
штиль 0 16 км ясно +27.2 +10.0 34 +28 +28 жарко 1010.2 1007.7
штиль 0 16 км ясно +25.6 +9.4 36 +26 +26 жарко 1010.0 1007.4
штиль 0 16 км ясно +23.9 +11.1 45 +25 +25 комфорт 1010.4 1007.7 +23.9 +32.2
штиль 0 16 км ясно +23.3 +11.1 46 +26 +26 жарко 1010.3 1007.7
С 2 16 км ясно +24.4 +10.0 40 +25 +25 комфорт 1010.9 1008.4
С 3 16 км ясно +26.1 +10.0 36 +27 +28 жарко 1011.7 1009.1
СЗ 3 16 км ясно +27.8 +10.6 34 +28 +31 жарко 1012.1 1009.4
штиль 0 16 км ясно +30.0 +10.6 30 +30 +40 жарко 1012.1 1009.4
СЗ 2 16 км ясно +32.8 +10.0 25 +32 +44 жарко 1011.9 1009.4 +22.8 +33.3
З 2 16 км ясно +35.0 +10.6 23 +34 +50 очень
жарко
1011.3 1008.8
З 3 16 км ясно +35.6 +11.1 23 +35 +51 опасность
солнечного
удара
1010.9 1008.4
СЗ 4 16 км ясно +36.7 +12.8 24 +37 +50 очень
жарко
1010.4 1007.7
С 5 16 км ясно +38.3 +14.4 24 +39 +49 очень
душно
1009.8 1007.4
СЗ 4 16 км ясно +39.4 +15.0 24 +40 +52 опасность
солнечного
удара
1009.1 1006.4
З 6 16 км ясно +39.4 +15.0 24 +40 +45 очень
душно
1008.6 1006.1 +32.8 +40.0
СЗ 6 16 км ясно +38.3 +15.0 25 +39 +42 очень
душно
1008.7 1006.1
СЗ 7 16 км ясно +36.7 +11.7 22 +36 +37 очень
жарко
1009.0 1006.4
СЗ 5 16 км ясно +34.4 +8.3 20 +33 +33 жарко 1009.1 1006.4
СЗ 4 16 км ясно +32.8 +8.3 22 +31 +31 жарко 1009.4 1006.7
С 4 16 км ясно +30.0 +10.0 29 +30 +30 жарко 1010.0 1007.4
С 5 16 км ясно +27.8 +11.7 37 +29 +29 жарко 1010.3 1007.7 +27.8 +39.4
С 5 16 км ясно +27.2 +11.7 38 +28 +28 жарко 1010.4 1007.7
СЗ 6 16 км ясно +26.7 +10.0 35 +27 +27 жарко 1010.2 1007.7
СЗ 5 16 км ясно +25.6 +8.9 35 +26 +26 жарко 1010.2 1007.7
СЗ 4 16 км ясно +23.9 +9.4 40 +25 +25 комфорт 1010.1 1007.4
С 4 16 км ясно +23.9 +8.9 38 +25 +25 комфорт 1010.0 1007.4
С 5 16 км ясно +22.2 +10.0 46 +24 +24 комфорт 1010.3 1007.7 +22.2 +27.8
СЗ 4 16 км ясно +21.7 +10.0 47 +23 +23 комфорт 1010.7 1008.1
СЗ 4 16 км ясно +21.1 +10.6 51 +23 +23 комфорт 1011.1 1008.4
СЗ 4 16 км ясно +22.8 +10.6 46 +25 +25 комфорт 1011.6 1009.1
Местоположение метеостанции Modesto City-County Airport: широта 37.6242 долгота -120.9506 высота над уровнем моря 22 м.
В архиве по умолчанию представлена погода в Модесто за последние 1-2 суток. Обновление информации о фактической погоде в базе происходит ежечасно! Архивные данные за месяц целиком и за предыдущие месяцы Вы можете получить, выбрав интересующий диапазон дат из раскрывающегося списка и нажав кнопку "Ввод!".
Внимание! Архив погоды МЕТАР в базе сайта по станциям, не включенным в климатический монитор, хранится не более 60 дней. Нет смысла пытаться выбрать более раннюю дату.
*Определитесь, кто Вы:
Внимание! Время в таблицах - местное (без учета летнего времени). Для получения всемирного времени необходимо вычесть поправку, которая равна -8 ч.
Смотрите также архив погоды в соседних городах и на ближайших метеорологических станциях:
Партнеры нашего сайта:      
Пояснения к столбцам:
  • Ветер - указаны скорость ветра в м/с - средняя за 10 мин, порывы в срок и между сроками (в фигурных скобках) и направление, откуда дует ветер: С - северный,
  • СВ - северо-восточный, В - восточный, ЮВ - юго-восточный, Ю - южный, ЮЗ - юго-западный, З - западный, СЗ - северо-западный.
  • Видимость - горизонтальная дальность видимости в метрах или километрах. При видимости от 1 до 10 км при отсутствии осадков обычно наблюдается дымка, при ухудшении видимости до 1 км и менее - туман. В сухую погоду видимость может ухудшаться дымом, пылью или мглою.
  • Явления - указаны атмосферные явления, наблюдавшиеся в срок или в последний час перед сроком; фигурными скобками обозначены явления, наблюдавшиеся между сроками (за 1-3 часа до срока); квадратными скобками обозначены град или гололедные отложения с указанием их диаметра в мм.
  • Облачность - указаны через наклонную черту общая и нижняя облачность в баллах и высота нижней границы облаков в метрах; квадратными скобками обозначены формы облаков: Ci - перистые, Cs - перисто-слоистые, Cc - перисто-кучевые, Ac - высококучевые, As - высокослоистые, Sc - слоисто-кучевые, Ns - слоисто-дождевые, Cu - кучевые, Cb - кучево-дождевые. Подробнее классификацию облаков см. в Атласе облаков (PDF).
  • T - Температура воздуха - температура, измеренная на высоте 2 м над землей.
  • Td - Температура точки росы - температура, при понижении до которой содержащийся в воздухе водяной пар достигнет насыщения.
  • f - Относительная влажность воздуха - влажноcть воздуха, измеренная на высоте 2 м над землей.
  • Te - Эффективная температура - температура, которую ощущает одетый по сезону человек в тени. Характеристика душности погоды. При расчете учитывается влияние влажности воздуха и скорости ветра на теплоощущения человека.
  • Tes - Эффективная температура на солнце - температура, которую ощущает человек, с поправкой на солнечный нагрев. Характеристика знойности погоды. Зависит от высоты солнца над горизонтом, облачности и скорости ветра. Ночью, в пасмурную погоду, а также при ветре 12 м/с и более поправка равна нулю.
  • P - Атмосферное давление - приведенное к уровню моря атмосферное давление.
  • Po - Атмосферное давление - измеренное на уровне метеостанции атмосферное давление.
  • Tmin - Минимальная температура - минимум температуры воздуха на высоте 2 м над землей.
  • Tmax - Максимальная температура - максимум температуры воздуха на высоте 2 м над землей.
  • R - Количество осадков - Количество выпавших осадков за период времени, мм. При наведении курсора мыши на число - период времени, за который выпало указанное количество осадков.
  • R24 - Количество осадков - Количество выпавших осадков за 24 часа, мм.
  • S - Снежный покров - Высота снежного покрова, см. При наведении курсора мыши на число - состояние снежного покрова и степень покрытия местности в баллах.